Miscellaneous Local Product
Issued by NWS Hastings, NE

Home | Current Version | Previous Version | Graphics & Text | Print | Product List | Glossary On
Versions: 1 2 3 4 5 6 7 8 9 10 11 12 13 14 15 16 17 18 19 20 21 22 23 24 25 26 27 28 29 30 31 32 33 34 35 36 37 38 39 40 41 42 43 44 45 46 47 48 49 50
000
AXUS43 KGID 150802
MISGRI

GID CWA HOURLY WEATHER ROUNDUP
NATIONAL WEATHER SERVICE HASTINGS NE
300 AM CDT MON SEP 15 2014

NOTE: "FAIR" INDICATES FEW OR NO CLOUDS BELOW 12,000 FEET WITH NO
SIGNIFICANT WEATHER AND/OR OBSTRUCTIONS TO VISIBILITY.

...SOUTH CENTRAL NEBRASKA...

CITY           SKY/WX    TMP DP  RH WIND       PRES   REMARKS
GRAND ISLAND   FAIR      59  54  83 E7        30.04S
HASTINGS       PTCLDY    57  53  86 NE8       30.02S
KEARNEY        PTCLDY    55  52  88 N9        30.03F
ORD            PTCLDY    53  52  96 NW6       30.08R
YORK           CLOUDY    59  59 100 NE9       30.04F
AURORA         PTCLDY    58  56  92 E5        30.04R
LEXINGTON      PTCLDY    55  52  90 NW5       30.06R
HOLDREGE       PTCLDY    55  52  90 CALM      30.02R
HEBRON         PTCLDY    59  55  87 NE5       30.00R

...NEBRASKA PANHANDLE...

CITY           SKY/WX    TMP DP  RH WIND       PRES   REMARKS
CHADRON        CLEAR     36  35  96 SW3       30.26R
ALLIANCE       CLEAR     41  38  89 N6        30.23R
SCOTTSBLUFF    CLEAR     44  40  85 CALM      30.25R
SIDNEY         CLOUDY    51  45  79 N17G23    30.20R

...WESTERN AND NORTH CENTRAL NEBRASKA...

CITY           SKY/WX    TMP DP  RH WIND       PRES   REMARKS
VALENTINE      CLOUDY    50  39  66 N10       30.21R
AINSWORTH      CLOUDY    49  40  73 N10       30.19R
ONEILL         CLOUDY    51  48  87 N13       30.15R
BROKEN BOW     PTCLDY    54  52  93 N12       30.09R
IMPERIAL       MOCLDY    54  52  93 N8        30.11R
NORTH PLATTE   MOCLDY    55  52  89 N7        30.11R
MCCOOK         PTCLDY    54  52  93 N7        30.04R

...EASTERN NEBRASKA...

CITY           SKY/WX    TMP DP  RH WIND       PRES   REMARKS
NORFOLK        PTCLDY    52  50  93 CALM      30.06S
SO SIOUX CITY  PTCLDY    55  51  86 E6        30.07F
TEKAMAH        CLOUDY    60  57  89 CALM      30.06S
ALBION         PTCLDY    53  50  91 NW7       30.08R
OMAHA EPPLEY   CLOUDY    62  57  83 E10       30.05F
OFFUTT AFB     CLOUDY    60  60 100 NE7       30.05R
LINCOLN        CLOUDY    61  57  87 NE6       30.04F
NEBRASKA CITY  MOCLDY    63  53  72 E5        30.02F
BEATRICE       PTCLDY    62  58  86 E3        30.01F
FALLS CITY     CLOUDY    64  59  83 SE5       30.02S

...NORTHERN KANSAS...

CITY           SKY/WX    TMP DP  RH WIND       PRES   REMARKS
GOODLAND       PTCLDY    59  57  93 S7        30.02F
HILL CITY      CLOUDY    58  56  93 CALM      29.98S
NORTON         SUNNY     54  48  82 N8        29.99R
PHILLIPSBURG   CLEAR     57  55  94 NE7       29.97F
SMITH CENTER   CLEAR     57  55  94 NE10      29.97S
BELOIT         CLEAR     63  61  94 SE3       29.94F
HAYS           PTCLDY    61  55  82 W3        29.99R
RUSSELL        CLEAR     64  61  90 SW10      29.97R
CONCORDIA      PTCLDY    58  58 100 CALM      29.96F
SALINA         CLEAR     67  60  78 S13G22    29.98R
TOPEKA         PTCLDY    62  60  93 E6        30.03F



USA.gov is the U.S. government's official web portal to all federal, state and local government web resources and services.